Regional Weather Roundup
Issued by NWS Burlington, VT

Home | Current Version | Previous Version | Text Only | Print | Product List | Glossary On
Versions: 1 2 3 4 5 6 7 8 9 10 11 12 13 14 15 16 17 18 19 20 21 22 23 24 25 26 27 28 29 30 31 32 33 34 35 36 37 38 39 40 41 42 43 44 45 46 47 48 49 50
000
ASUS41 KBTV 270430
RWRBTV
VERMONT REGIONAL WEATHER ROUNDUP
NATIONAL WEATHER SERVICE BURLINGTON VT
1100 PM EST FRI DEC 26 2014

NOTE: "FAIR" INDICATES FEW OR NO CLOUDS BELOW 12,000 FEET WITH NO
SIGNIFICANT WEATHER AND/OR OBSTRUCTIONS TO VISIBILITY.

* THESE REPORTS ARE NOT UNDER NWS QUALITY CONTROL AND/OR DO NOT
  REPORT WEATHER SUCH AS PRECIPITATION AND FOG.

VTZ001>019-270500-
_____VERMONT_____


CITY           SKY/WX    TMP DP  RH WIND       PRES   REMARKS
BURLINGTON     CLOUDY    39  28  64 S7        30.12S
MONTPELIER     CLOUDY    34  28  79 SE6       30.12F
MORRISVILLE    CLOUDY    40  29  64 W6        30.09F
ST. JOHNSBURY*   N/A     32  28  85 MISG      30.08F
LYNDONVILLE*   CLOUDY    35  27  70 CALM      30.09F
MIDDLEBURY*    CLOUDY    38  30  72 CALM      30.12F
RUTLAND*       MOCLDY    37  27  65 SW7       30.12F
SPRINGFIELD    CLOUDY    29  27  92 CALM      30.15F
HIGHGATE*      CLOUDY    38  31  76 SW5       30.11R
NEWPORT*       CLOUDY    37  30  75 SW7       30.08S
BENNINGTON     CLEAR     27  24  89 CALM      30.15F
SUTTON*          N/A     32 N/A N/A MISG        N/A
GALLUP MILLS*    N/A     32 N/A N/A MISG        N/A
UNION VILLAGE*   N/A     27 N/A N/A MISG        N/A
MT. MANSFIELD*   N/A     27 N/A N/A CALM        N/A

_____LAKE CHAMPLAIN_____


CITY           SKY/WX    TMP DP  RH WIND       PRES   REMARKS
BURTON ISLAND*   N/A     41  32  70 S9          N/A
COLCHESTER RF*   N/A     41  34  75 SW12        N/A

$$

NYZ007-026>031-035-052-083-270500-
_____NORTHERN NEW YORK_____


CITY           SKY/WX    TMP DP  RH WIND       PRES   REMARKS
PLATTSBURGH    CLOUDY    42  30  62 CALM      30.12S
SARANAC LAKE   CLOUDY    34  28  79 SW8       30.06F
MASSENA        CLOUDY    39  31  72 SW6       30.12F
POTSDAM*       CLOUDY    39  34  81 SW6       30.11S
STARK FALLS*     N/A     37 N/A N/A W6          N/A
WATERTOWN      CLOUDY    43  27  53 SW9       30.14R
FT DRUM        CLOUDY    40  24  53 SW7       30.12S
ALBANY         CLEAR     29  25  85 SE3       30.17F
GLENS FALLS    PTCLDY    28  25  88 CALM      30.16F

$$
NHZ002-005-011-270500-
_____NEW HAMPSHIRE_____


CITY           SKY/WX    TMP DP  RH WIND       PRES   REMARKS
LEBANON        MOCLDY    29  26  89 CALM      30.13F
KEENE          CLEAR     28  27  93 CALM      30.15S
MT WASHINGTON  FOG       16  16 100 NW55G63     N/A  VSB 0   WCI -10
PLYMOUTH       CLOUDY    30  30 100 CALM      30.10F
WHITEFIELD     CLOUDY    33  28  81 CALM      30.09F

$$

_____REGIONAL QUEBEC LOCATIONS_____


CITY           SKY/WX    TMP DP  RH WIND       PRES   REMARKS
MONTREAL       CLOUDY    37  32  81 SW9       30.09S
QUEBEC CITY    CLOUDY    36  32  87 W9        29.99R
SHERBROOKE     CLOUDY    36  30  80 W8        30.05F

_____REGIONAL ONTARIO LOCATIONS_____


CITY           SKY/WX    TMP DP  RH WIND       PRES   REMARKS
OTTAWA         MOCLDY    36  32  87 SW8       30.10F

______KEY______
VSB  - VISIBILITY IN MILES
WCI  - WIND CHILL INDEX
HX   - HEAT INDEX
$$
NNNN


USA.gov is the U.S. government's official web portal to all federal, state and local government web resources and services.